Hourly Weather Roundup
Issued by NWS Central Illinois

Home | Current Version | Previous Version | Text Only | Print | Product List | Glossary On
Versions: 1 2 3 4 5 6 7 8 9 10 11 12 13 14 15 16 17 18 19 20 21 22 23 24 25 26 27 28 29 30 31 32 33 34 35 36 37 38 39 40 41 42 43 44 45 46 47 48 49 50
000
NZUS43 KILX 261110
HWRILX

Area Weather Roundup
National Weather Service Lincoln IL
600 AM CDT WED JUL 26 2017

NOTE:  "FAIR" indicates few or no clouds below 12,000 feet, with
       no sigificant weather and/or obstructions to visibility.


CITY           SKY/WX    TMP DP  RH WIND       PRES   REMARKS
Bloomington    PTCLDY    65  62  90 S7        30.11S
Champaign      CLOUDY    63  60  90 SE3       30.11F
Danville       CLEAR     59  59  99 CALM      30.10S
Decatur        CLEAR     64  62  93 E3        30.09F
Effingham      CLEAR     67  67  99 E5        30.10F
Flora          PTCLDY    71  67  88 E3        30.09S
Galesburg      PTCLDY    68  66  93 SE5       30.07S
Jacksonville   MOCLDY    67  66  96 SE5       30.05F
Lacon          PTCLDY    65  64  96 CALM      30.07F
Lawrenceville  CLEAR     68  65  90 NE5       30.11R
Litchfield     CLEAR     70  67  91 SE6       30.06S
$$


CITY           SKY/WX    TMP DP  RH WIND       PRES   REMARKS
Lincoln        CLOUDY    66  66  99 CALM      30.07F
Macomb         CLOUDY    66  66  98 CALM      30.08R FOG
Mattoon        CLEAR     67  64  90 SE8       30.09F
Mt Carmel AP   MOCLDY    68  66  93 NE5       30.10S
Olney-Noble AP MOCLDY    69  67  92 E6        30.09S
Paris AP       PTCLDY    63  62  97 E5        30.12S
Peoria         CLEAR     69  66  90 SE5       30.06F
Pontiac        PTCLDY    62  62  99 E5        30.11R
Rantoul        CLOUDY    65  63  93 SE3       30.11S
Robinson       MOCLDY    65  64  97 CALM      30.12R
Springfield    PTCLDY    70  67  90 SE7       30.07S
Taylorville    CLEAR     68  66  93 SE6       30.07F
$$

...REGIONAL REPORTS...


CITY           SKY/WX    TMP DP  RH WIND       PRES   REMARKS
Chicago O`Hare MOCLDY    66  59  78 S3        30.09F
Kankakee       PTCLDY    61  60  96 CALM      30.12S
Moline         CLOUDY    70  66  87 CALM      30.04S
Mount Sterling PTCLDY    68  67  96 SE5       30.05S
Mount Vernon   CLEAR     71  68  90 NE3       30.08R
Pittsfield     PTCLDY    69  68  96 SE5       30.06S
Quincy         CLEAR     70  68  93 SE6       30.04S
Rockford       CLOUDY    66  61  84 S7        30.08S
$$


CITY           SKY/WX    TMP DP  RH WIND       PRES   REMARKS
Burlington     CLOUDY    72  70  93 S7        30.04S
Cedar Rapids   NOT AVBL
Des Moines     CLOUDY    75  69  81 S8        29.98R
Kirksville     CLOUDY    72  70  93 SE8       30.03F FOG
Ottumwa        CLOUDY    73  71  93 SE8       30.01S
St Louis       MOCLDY    78  71  79 SE6       30.05S HX  80
$$


CITY           SKY/WX    TMP DP  RH WIND       PRES   REMARKS
Terre Haute    CLEAR     63  60  90 E3        30.12S
Evansville     CLEAR     69  67  93 CALM      30.09F
Indianapolis   PTCLDY    63  60  90 SE7       30.14R
Lafayette      CLEAR     62  60  93 E3        30.12F
Madison        CLOUDY    68  62  81 S7        30.06R
Milwaukee      CLOUDY    69  60  73 S10       30.06F
$$






USA.gov is the U.S. government's official web portal to all federal, state and local government web resources and services.